Regional Weather Roundup
Issued by NWS Boston, MA

Current Version | Previous Version | Text Only | Print | Product List | Glossary On
Versions: 1 2 3 4 5 6 7 8 9 10 11 12 13 14 15 16 17 18 19 20 21 22 23 24 25 26 27 28
000
ASUS41 KBOX 251510
RWRBOX

REGIONAL WEATHER ROUNDUP
NATIONAL WEATHER SERVICE TAUNTON MA
1100 AM EDT SAT OCT 25 2014

NOTE:  "FAIR" INDICATES FEW OR NO CLOUDS BELOW 12,000 FEET WITH NO
SIGNIFICANT WEATHER AND/OR OBSTRUCTIONS TO VISIBILITY.  THE FOLLOWING
OBSERVATION LOCATIONS DO NOT REPORT PRESENT WEATHER...PROVINCETOWN...
SMITHFIELD...BLOCK ISLAND...KEENE...AND OXFORD.

MAZALL-251600-
EASTERN MASSACHUSETTS

CITY           SKY/WX    TMP DP  RH WIND       PRES   REMARKS
BOSTON         MOSUNNY   58  42  55 W10       29.72F
BEVERLY        MOSUNNY   58  42  55 W12       29.70F
LAWRENCE       MOSUNNY   57  42  57 W9        29.72F
BEDFORD        SUNNY     58  43  57 W9        29.71F
BLUE HILL        N/A     55  43  63 W8        29.72F
NORWOOD        SUNNY     58  43  57 SW9       29.72F
MARSHFIELD     NOT AVBL
PLYMOUTH       SUNNY     56  44  64 W9        29.73F
TAUNTON        SUNNY     58  42  55 W8        29.74F
NEW BEDFORD    SUNNY     58  43  57 W10       29.74F
$$

MAZALL-251600-
CAPE COD AND THE ISLANDS

CITY           SKY/WX    TMP DP  RH WIND       PRES   REMARKS
FALMOUTH       SUNNY     57  43  58 W10       29.73F
HYANNIS        SUNNY     60  43  53 W6        29.71F
CHATHAM        SUNNY     58  42  55 VRB5      29.73F
PROVINCETOWN   SUNNY     57   1  10 W13       29.72F
NANTUCKET      SUNNY     60  43  53 W13       29.74F
MARTHAS VNYRD  SUNNY     58  46  64 W12G18    29.75F
$$

MAZALL-251600-
CENTRAL AND WESTERN MASSACHUSETTS

CITY           SKY/WX    TMP DP  RH WIND       PRES   REMARKS
WORCESTER      SUNNY     53  40  61 W9        29.74F
FITCHBURG      SUNNY     59  39  47 W10       29.73F
ORANGE         SUNNY     53  42  66 W6        29.75F
SPRINGFIELD    SUNNY     56  42  58 W6        29.76F
WESTFIELD      SUNNY     59  38  45 W10G18    29.77F
NORTH ADAMS    SUNNY     52  44  74 VRB5      29.78F
PITTSFIELD     SUNNY     51  41  68 W10       29.77F
$$

RIZALL-251600-
RHODE ISLAND

CITY           SKY/WX    TMP DP  RH WIND       PRES   REMARKS
PROVIDENCE     MOSUNNY   59  42  53 W9        29.76F
NEWPORT        SUNNY     59  44  57 W8        29.75F
BLOCK ISLAND   SUNNY     59  45  58 W14       29.78F
SMITHFIELD     SUNNY     57  37  47 W6        29.74F
WESTERLY       SUNNY     59  43  55 VRB6      29.78F
$$

CTZALL-251600-
CONNECTICUT

CITY           SKY/WX    TMP DP  RH WIND       PRES   REMARKS
BRADLEY INTL   MOSUNNY   60  40  47 W9        29.77F
HARTFORD       SUNNY     57  39  51 NW7       29.79F
BRIDGEPORT     SUNNY     59  41  51 SW8       29.81F
DANBURY        SUNNY     56  38  50 W3        29.82F
GROTON         SUNNY     58  43  57 W7        29.77F
NEW HAVEN      SUNNY     59  39  47 NW7       29.80F
CHESTER        NOT AVBL
MERIDEN        SUNNY     57  40  52 W8        29.80F
WILLIMANTIC    MOSUNNY   57  41  55 W9        29.78F
OXFORD         SUNNY     52  39  62 CALM      29.80
$$

MEZ002-015-021-024-NHZ003-005-008-011-012-014-VTZ005-008-251600-
NORTHERN NEW ENGLAND

CITY           SKY/WX    TMP DP  RH WIND       PRES   REMARKS
PORTLAND ME    MOSUNNY   60  42  51 CALM      29.67F
BANGOR ME      MOSUNNY   53  39  59 W6        29.64F
CONCORD NH     MOSUNNY   56  41  57 NW5       29.70F
MANCHESTER NH  MOSUNNY   59  38  45 NW7       29.69F
NASHUA NH      SUNNY     59  40  49 W8        29.72F
PORTSMOUTH NH  MOSUNNY   57  42  55 W12       29.67F
JAFFREY NH     SUNNY     53  37  54 W7        29.73F
KEENE NH       SUNNY     48  37  66 S5        29.75F
BURLINGTON VT  MOSUNNY   51  42  71 S10       29.74F
MT. WASHINGTON NOT AVBL
$$

NYZ052-076-251600-
EASTERN NEW YORK

CITY           SKY/WX    TMP DP  RH WIND       PRES   REMARKS
ALBANY         MOSUNNY   55  43  63 VRB3      29.80F
NEW YORK CITY  MOSUNNY   58  39  49 W9        29.84F
$$

ANZALL-251600-
MARINE OBSERVATIONS

STATION/POSITION TIME  TEMP    WIND        PRES    VSBY  WAVE
                       AIR SEA DIR/SP/G                  HT/PER
                 (UTC) (F)     (DEG/KT/KT) (MB)    (MI)  (FT/S)
BOSTON BUOY      NOT AVBL
BUZZARDS BAY     NOT AVBL
NANTUCKET SOUND  NOT AVBL
MASS BAY-STELLWA NOT AVBL
ISLE OF SHOALS   NOT AVBL
S OF BLOCK IS    NOT AVBL
$$

......................KEY.........................
  SKY/WX - SKY CONDITION/PRESENT WEATHER
  TMP    - TEMPERATURE IN FAHRENHEIT
  DWPT   - DEWPOINT IN FAHRENHEIT
  RH     - RELATIVE HUMIDITY IN PERCENT
  WIND   - DIRECTION AND SPEED IN MPH
  PRES   - MEAN SEA LEVEL PRESSURE IN INCHES OF HG
  WCI    - WIND CHILL INDEX
  VSB    - VISIBILITY IN MILES
  HX     - HEAT INDEX
  TC     - TEMPERATURE IN CELSIUS
  VRB    - VARIABLE WIND DIRECTION
  N/A    - NOT AVAILABLE



USA.gov is the U.S. government's official web portal to all federal, state and local government web resources and services.